La Veta, CO

8:28 PM MST on February 21, 2017 (GMT -0700)
La Veta Pass

Weather History for KVTP - October, 2014

Change the Weather History Date:

Thursday, October 23, 2014

  Actual Average (KALS) Record (KALS)
Temperature  
Mean Temperature 43 °F -  
Max Temperature 53 °F 58 °F 74 °F (2003)
Min Temperature 33 °F 22 °F 4 °F (2008)
Degree Days  
Heating Degree Days 22    
Moisture  
Dew Point 29 °F    
Average Humidity 60    
Maximum Humidity 87    
Minimum Humidity 35    
Precipitation  
Precipitation 0.00 in - - ()
Sea Level Pressure  
Sea Level Pressure 30.42 in    
Wind  
Wind Speed 8 mph (SSW)    
Max Wind Speed 18 mph    
Max Gust Speed 29 mph    
Visibility 10 miles    
Events      
Averages and records for this station are not official NWS values.
T = Trace of Precipitation, MM = Missing Value Source: NWS Daily Summary

Daily Weather History Graph

Daily Weather History Graph

Search for Another Location

Airport or City:

Trip Planner

Search our weather history database for the weather conditions in past years. The results will help you decide how hot, cold, wet, or windy it might be!

Date:

Astronomy

Oct. 23, 2014 Rise Set
Actual Time 7:16 AM MDT 6:12 PM MDT
Civil Twilight 6:49 AM MDT 6:39 PM MDT
Nautical Twilight 6:19 AM MDT 7:09 PM MDT
Astronomical Twilight 5:49 AM MDT 7:40 PM MDT
Moon 6:59 AM MDT (10/23) 6:16 PM MDT (10/23)
Length of Visible Light 11h 49m
Length of Day
10h 56m
Waning Crescent, 0% of the Moon is Illuminated
Oct 23
Waning Crescent
Oct 23
New
Oct 30
First Quarter
Nov 6
Full
Nov 14
Last Quarter

Hourly Weather History & Observations

Time (MDT) Temp. Windchill Dew Point Humidity Pressure Visibility Wind Dir Wind Speed Gust Speed Precip Events Conditions
12:09 AM 39.2 °F 35.0 °F 32.0 °F 75% 30.38 in 10.0 mi South 5.8 mph - N/A   Clear
12:32 AM 39.2 °F 35.0 °F 32.0 °F 75% 30.38 in 10.0 mi South 5.8 mph - N/A   Clear
12:52 AM 37.4 °F 32.1 °F 30.2 °F 75% 30.37 in 10.0 mi South 6.9 mph - N/A   Clear
1:12 AM 37.4 °F 31.4 °F 30.2 °F 75% 30.38 in 10.0 mi South 8.1 mph - N/A   Clear
1:32 AM 37.4 °F 32.8 °F 30.2 °F 75% 30.37 in 10.0 mi South 5.8 mph - N/A   Clear
1:51 AM 35.6 °F 29.2 °F 30.2 °F 81% 30.37 in 10.0 mi South 8.1 mph - N/A   Clear
2:01 AM 35.6 °F 29.9 °F 30.2 °F 81% 30.37 in 10.0 mi SSW 6.9 mph - N/A   Clear
2:26 AM 35.6 °F 30.7 °F 30.2 °F 81% 30.37 in 10.0 mi SSW 5.8 mph - N/A   Clear
2:51 AM 33.8 °F 29.6 °F 30.2 °F 87% 30.37 in 10.0 mi SSW 4.6 mph - N/A   Clear
3:12 AM 35.6 °F 30.7 °F 30.2 °F 81% 30.36 in 10.0 mi SW 5.8 mph - N/A   Clear
3:31 AM 33.8 °F 28.6 °F 30.2 °F 87% 30.36 in 10.0 mi SW 5.8 mph - N/A   Clear
3:52 AM 33.8 °F 25.3 °F 30.2 °F 87% 30.35 in 10.0 mi South 11.5 mph 18.4 mph N/A   Clear
4:12 AM 33.8 °F 27.0 °F 30.2 °F 87% 30.36 in 10.0 mi SSW 8.1 mph - N/A   Clear
4:31 AM 33.8 °F 27.7 °F 30.2 °F 87% 30.37 in 10.0 mi SSW 6.9 mph - N/A   Clear
4:51 AM 33.8 °F 27.7 °F 30.2 °F 87% 30.36 in 10.0 mi SSW 6.9 mph - N/A   Clear
5:09 AM 33.8 °F 28.6 °F 30.2 °F 87% 30.37 in 10.0 mi SSW 5.8 mph - N/A   Clear
5:27 AM 33.8 °F 27.7 °F 30.2 °F 87% 30.37 in 10.0 mi South 6.9 mph - N/A   Clear
5:48 AM 33.8 °F 27.0 °F 30.2 °F 87% 30.36 in 10.0 mi SSW 8.1 mph 19.6 mph N/A   Clear
6:07 AM 33.8 °F 26.4 °F 28.4 °F 81% 30.36 in 10.0 mi South 9.2 mph 18.4 mph N/A   Clear
6:30 AM 33.8 °F 27.0 °F 28.4 °F 81% 30.37 in 10.0 mi SSW 8.1 mph - N/A   Clear
6:52 AM 33.8 °F 27.0 °F 28.4 °F 81% 30.38 in 10.0 mi South 8.1 mph - N/A   Clear
7:06 AM 33.8 °F 26.4 °F 28.4 °F 81% 30.39 in 10.0 mi South 9.2 mph - N/A   Clear
7:32 AM 33.8 °F 25.8 °F 30.2 °F 87% 30.40 in 10.0 mi South 10.4 mph 16.1 mph N/A   Clear
7:52 AM 33.8 °F 26.4 °F 28.4 °F 81% 30.41 in 10.0 mi South 9.2 mph - N/A   Clear
7:55 AM 35.6 °F 28.6 °F 28.4 °F 75% 30.41 in 10.0 mi South 9.2 mph - N/A   Clear
8:32 AM 37.4 °F 30.3 °F 30.2 °F 75% 30.42 in 10.0 mi South 10.4 mph 17.3 mph N/A   Clear
8:52 AM 39.2 °F 35.0 °F 30.2 °F 70% 30.43 in 10.0 mi South 5.8 mph - N/A   Clear
9:12 AM 39.2 °F 33.6 °F 28.4 °F 65% 30.43 in 10.0 mi South 8.1 mph - N/A   Clear
9:30 AM 41.0 °F 33.5 °F 30.2 °F 65% 30.43 in 10.0 mi South 13.8 mph 19.6 mph N/A   Clear
9:49 AM 42.8 °F 36.2 °F 28.4 °F 57% 30.44 in 10.0 mi South 12.7 mph 19.6 mph N/A   Clear
10:08 AM 44.6 °F 39.7 °F 30.2 °F 57% 30.44 in 10.0 mi South 9.2 mph 16.1 mph N/A   Clear
10:32 AM 44.6 °F 40.2 °F 30.2 °F 57% 30.45 in 10.0 mi SSW 8.1 mph 16.1 mph N/A   Clear
10:51 AM 46.4 °F 41.9 °F 30.2 °F 53% 30.46 in 10.0 mi South 9.2 mph 18.4 mph N/A   Clear
11:11 AM 48.2 °F - 28.4 °F 46% 30.45 in 10.0 mi SSW 10.4 mph 19.6 mph N/A   Clear
11:31 AM 50.0 °F - 30.2 °F 47% 30.45 in 10.0 mi South 10.4 mph 19.6 mph N/A   Clear
11:47 AM 48.2 °F - 30.2 °F 50% 30.45 in 10.0 mi South 10.4 mph 25.3 mph N/A   Clear
12:07 PM 50.0 °F - 28.4 °F 43% 30.45 in 10.0 mi SSW 11.5 mph 19.6 mph N/A   Clear
12:29 PM 50.0 °F - 30.2 °F 47% 30.44 in 10.0 mi SSW 11.5 mph 23.0 mph N/A   Clear
12:52 PM 51.8 °F - 28.4 °F 41% 30.43 in 10.0 mi SSW 10.4 mph 19.6 mph N/A   Clear
1:11 PM 51.8 °F - 30.2 °F 44% 30.42 in 10.0 mi South 12.7 mph 21.9 mph N/A   Clear
1:32 PM 53.6 °F - 30.2 °F 41% 30.41 in 10.0 mi South 12.7 mph 26.5 mph N/A   Clear
1:51 PM 53.6 °F - 30.2 °F 41% 30.41 in 10.0 mi South 18.4 mph 27.6 mph N/A   Clear
2:10 PM 53.6 °F - 30.2 °F 41% 30.41 in 10.0 mi SSW 11.5 mph 26.5 mph N/A   Clear
2:29 PM 53.6 °F - 28.4 °F 38% 30.41 in 10.0 mi South 15.0 mph 24.2 mph N/A   Clear
2:52 PM 53.6 °F - 26.6 °F 35% 30.41 in 10.0 mi South 12.7 mph 24.2 mph N/A   Clear
3:12 PM 53.6 °F - 28.4 °F 38% 30.41 in 10.0 mi SSW 12.7 mph 25.3 mph N/A   Clear
3:22 PM 53.6 °F - 28.4 °F 38% 30.41 in 10.0 mi SSW 11.5 mph 25.3 mph N/A   Clear
3:50 PM 53.6 °F - 28.4 °F 38% 30.41 in 10.0 mi South 11.5 mph 18.4 mph N/A   Clear
4:09 PM 51.8 °F - 28.4 °F 41% 30.41 in 10.0 mi SSW 11.5 mph 23.0 mph N/A   Clear
4:29 PM 51.8 °F - 28.4 °F 41% 30.42 in 10.0 mi SSW 9.2 mph - N/A   Clear
4:51 PM 50.0 °F - 26.6 °F 40% 30.43 in 10.0 mi SSW 8.1 mph - N/A   Clear
5:09 PM 48.2 °F - 26.6 °F 43% 30.43 in 10.0 mi SW 8.1 mph 16.1 mph N/A   Clear
5:31 PM 46.4 °F 43.5 °F 26.6 °F 46% 30.44 in 10.0 mi SSW 5.8 mph - N/A   Clear
5:52 PM 46.4 °F 42.9 °F 26.6 °F 46% 30.44 in 10.0 mi SSW 6.9 mph - N/A   Clear
6:07 PM 44.6 °F 40.7 °F 26.6 °F 49% 30.44 in 10.0 mi SSW 6.9 mph - N/A   Clear
6:31 PM 44.6 °F 41.4 °F 26.6 °F 49% 30.44 in 10.0 mi SW 5.8 mph - N/A   Clear
6:47 PM 44.6 °F 40.7 °F 26.6 °F 49% 30.45 in 10.0 mi SSW 6.9 mph - N/A   Clear
7:12 PM 44.6 °F 41.4 °F 26.6 °F 49% 30.45 in 10.0 mi SSW 5.8 mph - N/A   Clear
7:32 PM 44.6 °F 41.4 °F 26.6 °F 49% 30.46 in 10.0 mi SW 5.8 mph - N/A   Clear
7:51 PM 44.6 °F 40.7 °F 26.6 °F 49% 30.46 in 10.0 mi WSW 6.9 mph - N/A   Clear
8:10 PM 44.6 °F 41.4 °F 26.6 °F 49% 30.46 in 10.0 mi SW 5.8 mph - N/A   Clear
8:26 PM 44.6 °F 41.4 °F 26.6 °F 49% 30.46 in 10.0 mi SSW 5.8 mph - N/A   Clear
8:49 PM 44.6 °F 40.2 °F 26.6 °F 49% 30.46 in 10.0 mi SSW 8.1 mph - N/A   Clear
9:12 PM 44.6 °F 39.7 °F 26.6 °F 49% 30.46 in 10.0 mi South 9.2 mph - N/A   Clear
9:30 PM 44.6 °F 40.7 °F 26.6 °F 49% 30.46 in 10.0 mi SSW 6.9 mph - N/A   Clear
9:47 PM 44.6 °F 40.2 °F 28.4 °F 53% 30.47 in 10.0 mi SSW 8.1 mph - N/A   Clear
10:10 PM 44.6 °F 37.2 °F 26.6 °F 49% 30.46 in 10.0 mi South 17.3 mph 26.5 mph N/A   Clear
10:31 PM 44.6 °F 38.1 °F 26.6 °F 49% 30.46 in 10.0 mi South 13.8 mph 21.9 mph N/A   Clear
10:52 PM 44.6 °F 38.1 °F 26.6 °F 49% 30.46 in 10.0 mi SSW 13.8 mph 19.6 mph N/A   Clear
11:09 PM 44.6 °F 37.4 °F 26.6 °F 49% 30.45 in 10.0 mi South 16.1 mph 24.2 mph N/A   Clear
11:32 PM 44.6 °F 37.8 °F 26.6 °F 49% 30.45 in 10.0 mi South 15.0 mph 25.3 mph N/A   Clear
11:51 PM 44.6 °F 37.4 °F 28.4 °F 53% 30.44 in 10.0 mi South 16.1 mph 28.8 mph N/A   Clear